Flag for Austria Weather past 2 weeks in Eferding, Upper Austria, Austria

Now
59 °F

Light rain. Low clouds.


Feels Like: 58 °F
Forecast: 54 / 64 °F
Wind: 5 mph from West

Location: Linz / Hoersching-Flughafen

Current Time: Sep 1, 2014 at 3:42:46 PM

Latest Report: Sep 1, 2014 at 3:00 PM


Visibility: 6 mi

Pressure: 30.03 "Hg

Humidity: 89%

Dew point: 55 °F

Location of EferdingLocation

Historic Weather in Eferding — Graph

°F

Eferding temperature yesterday

Maximum temperature yesterday: 66 °F (at 4:00 PM)
Minimum temperature yesterday: 55 °F (at 11:00 PM)
Average temperature yesterday: 61 °F

Past Weeks' High & Low Weather Summary

 TemperatureHumidityPressure
High76 °F (Aug 18, 4:00 PM)100% (Aug 31, 5:00 AM)30.16 "Hg (Aug 31, 5:00 AM)
Low44 °F (Aug 25, 6:00 AM)35% (Aug 28, 6:00 PM)29.73 "Hg (Aug 26, 7:00 PM)
Average60 °F80%29.99 "Hg
* Reported Aug 17 2:00 PM — Sep 1 2:00 PM, Eferding, Weather by CustomWeather, © 2014

Note: Actual official high and low records may vary slightly from our data, if they occured in-between our weather recording intervals... More about our weather records

Advertising

Eferding weather history for previous 24 hours

 ConditionsComfort  
Time TempWeatherWind HumidityBarometerVisibility
2:00 PM
Sep 1
57 °FLight rain. Low clouds.6 mph91%30.03 "Hg7 mi
1:00 PM58 °FLight rain. Low clouds.6 mph91%30.02 "Hg6 mi
12:00 PM57 °FLight rain. Low clouds.N/A91%30.02 "Hg22 mi
11:00 AM57 °FHeavy rain. Low clouds.5 mph90%30.01 "Hg8 mi
10:00 AM56 °FLight rain. Low clouds.5 mph92%30.00 "Hg7 mi
9:00 AM54 °FHeavy rain. Low clouds.N/A94%30.00 "Hg3 mi
8:00 AM53 °FHeavy rain. Low clouds.N/A96%29.99 "Hg3 mi
7:00 AM53 °FLight rain. Low clouds.N/A96%29.98 "Hg3 mi
6:00 AM53 °FLight rain. Low clouds.3 mph94%29.96 "Hg6 mi
5:00 AM53 °FLight rain. Overcast.N/A95%29.96 "Hg6 mi
4:00 AM53 °FLight rain. Overcast.N/A93%29.96 "Hg9 mi
3:00 AM53 °FOvercast.N/A91%29.97 "Hg22 mi
2:00 AMN/APassing clouds.16 mphN/AN/A7 mi
1:00 AM54 °FDrizzle. Overcast.7 mph89%29.98 "Hg28 mi
12:00 AM54 °FRain showers. Overcast.6 mph88%29.99 "Hg19 mi
11:00 PM
Aug 31
55 °FLight rain. Overcast.5 mph90%29.98 "Hg28 mi
10:00 PM56 °FLight rain. Overcast.7 mph90%29.97 "Hg16 mi
9:00 PMN/APassing clouds.7 mphN/AN/A6 mi
8:00 PM60 °FLight rain. Overcast.6 mph83%29.92 "Hg17 mi
7:00 PM61 °FOvercast.6 mph82%29.89 "Hg31 mi
6:00 PM62 °FOvercast.N/A75%29.89 "Hg28 mi
5:00 PM65 °FOvercast.6 mph68%29.89 "Hg28 mi
4:00 PM66 °FOvercast.5 mph66%29.89 "Hg25 mi
3:00 PM66 °FRain showers. Overcast.6 mph76%29.91 "Hg22 mi
Weather by CustomWeather, © 2014

See weather overviewHow to use our weather pages